This is the latest recevied weather packets stored in our database for station/object W8AN. If no packets are shown the sender has not sent any weather packets the latest 10 day(s).
| Time | Temp. | Humidity | Pressure | Rain* | Wind** | Luminosity | Snow |
|---|---|---|---|---|---|---|---|
| 1777830151 | 16.11° C | 38% | 4268.7 hPa | 0 mm | - | 206 W/m² | - |
| 1777829850 | 16.11° C | 39% | 4268.9 hPa | 0 mm | - | 772 W/m² | - |
| 1777829547 | 15.56° C | 35% | 4268.7 hPa | 0 mm | - | 595 W/m² | - |
| 1777829244 | 15.56° C | 37% | 4269 hPa | 0 mm | - | 441 W/m² | - |
| 1777828941 | 15.56° C | 38% | 4268.8 hPa | 0 mm | - | 727 W/m² | - |
| 1777828637 | 15.56° C | 37% | 4268.9 hPa | 0 mm | - | 718 W/m² | - |
| 1777828335 | 15.56° C | 38% | 4269 hPa | 0 mm | - | 753 W/m² | - |
| 1777828032 | 15.56° C | 37% | 4269.2 hPa | 0 mm | - | 751 W/m² | - |
| 1777827729 | 15.56° C | 39% | 4269 hPa | 0 mm | - | 721 W/m² | - |
| 1777827426 | 15.56° C | 39% | 4269.2 hPa | 0 mm | - | 729 W/m² | - |
| 1777827122 | 15.56° C | 44% | 4269.3 hPa | 0 mm | - | 731 W/m² | - |
| 1777826819 | 15.56° C | 42% | 4269.3 hPa | 0 mm | - | 732 W/m² | - |
| 1777826516 | 15° C | 40% | 4269.7 hPa | 0 mm | - | 730 W/m² | - |
| 1777826212 | 15° C | 43% | 4269.6 hPa | 0 mm | - | 736 W/m² | - |
| 1777825910 | 15° C | 43% | 4269.5 hPa | 0 mm | - | 736 W/m² | - |
| 1777825607 | 14.44° C | 42% | 4269.7 hPa | 0 mm | - | 742 W/m² | - |
| 1777825305 | 14.44° C | 46% | 4269.8 hPa | 0 mm | - | 746 W/m² | - |
| 1777825001 | 14.44° C | 47% | 4269.8 hPa | 0 mm | - | 746 W/m² | - |
| 1777824697 | 14.44° C | 48% | 4269.8 hPa | 0 mm | - | 747 W/m² | - |
| 1777824395 | 14.44° C | 46% | 4269.9 hPa | 0 mm | - | 750 W/m² | - |
| 1777824090 | 13.89° C | 49% | 4269.9 hPa | 0 mm | - | 759 W/m² | - |
| 1777823787 | 13.89° C | 48% | 4269.9 hPa | 0 mm | - | 756 W/m² | - |
| 1777823484 | 13.89° C | 49% | 4270.1 hPa | 0 mm | - | 769 W/m² | - |
| 1777823181 | 13.89° C | 49% | 4270.1 hPa | 0 mm | - | 779 W/m² | - |
| 1777822879 | 13.33° C | 49% | 4269.9 hPa | 0 mm | - | 786 W/m² | - |
* Rain latest hour (hover to see other rain measurements)
** Current wind speed in m/s (hover to see current wind gust speed)